Anchorage, AK

10:22 AM AKST on December 07, 2016 (GMT -0900)
Lake Hood

Weather History for PALH - August, 2013

Change the Weather History Date:

Saturday, August 3, 2013

  Actual Average Record
Temperature  
Mean Temperature 62 °F -  
Max Temperature 66 °F 65 °F 78 °F (1999)
Min Temperature 57 °F 52 °F 44 °F (1996)
Degree Days  
Heating Degree Days 4    
Growing Degree Days 12 (Base 50)    
Moisture  
Dew Point 49 °F    
Average Humidity 60    
Maximum Humidity 87    
Minimum Humidity 49    
Precipitation  
Precipitation 0.01 in - - ()
Sea Level Pressure  
Sea Level Pressure 29.82 in    
Wind  
Wind Speed 7 mph (South)    
Max Wind Speed 18 mph    
Max Gust Speed 39 mph    
Visibility 10 miles    
Events Rain    
Averages and records for this station are not official NWS values.
T = Trace of Precipitation, MM = Missing Value Source: NWS Daily Summary

Daily Weather History Graph

Daily Weather History Graph

Search for Another Location

Airport or City:

Trip Planner

Search our weather history database for the weather conditions in past years. The results will help you decide how hot, cold, wet, or windy it might be!

Date:

Astronomy

Aug. 03, 2013 Rise Set
Actual Time 5:38 AM AKDT 10:31 PM AKDT
Civil Twilight 4:35 AM AKDT 11:34 PM AKDT
Nautical Twilight 2:38 AM AKDT 1:33 AM AKDT
Astronomical Twilight Sun does not rise Sun does not rise
Moon 2:44 AM AKDT (8/3) 8:27 PM AKDT (8/3)
Length of Visible Light 18h 58m
Length of Day
16h 52m
Waning Crescent, 9% of the Moon is Illuminated
Aug 3
Waning Crescent
Aug 6
New
Aug 14
First Quarter
Aug 20
Full
Aug 28
Last Quarter

Hourly Weather History & Observations

Time (AKDT) Temp. Dew Point Humidity Pressure Visibility Wind Dir Wind Speed Gust Speed Precip Events Conditions
12:53 AM 63.0 °F 48.0 °F 58% 29.79 in 10.0 mi SE 5.8 mph 16.1 mph N/A   Overcast
1:53 AM 63.0 °F 50.0 °F 63% 29.78 in 10.0 mi Calm Calm - N/A   Overcast
2:53 AM 62.1 °F 50.0 °F 65% 29.79 in 10.0 mi SSW 5.8 mph - 0.00 in Rain Light Rain
3:53 AM 60.1 °F 53.1 °F 78% 29.78 in 10.0 mi North 3.5 mph - 0.01 in   Mostly Cloudy
4:53 AM 61.0 °F 52.0 °F 72% 29.79 in 10.0 mi Variable 3.5 mph - N/A   Mostly Cloudy
5:53 AM 57.9 °F 54.0 °F 87% 29.80 in 10.0 mi Calm Calm - N/A   Mostly Cloudy
6:53 AM 59.0 °F 53.1 °F 81% 29.80 in 10.0 mi Calm Calm - N/A   Overcast
7:53 AM 62.1 °F 54.0 °F 75% 29.79 in 10.0 mi NNW 3.5 mph - N/A   Overcast
8:53 AM 64.0 °F 48.9 °F 58% 29.78 in 10.0 mi SSW 3.5 mph - N/A   Mostly Cloudy
9:53 AM 64.0 °F 50.0 °F 60% 29.79 in 10.0 mi South 5.8 mph - N/A   Overcast
10:53 AM 64.0 °F 46.9 °F 54% 29.79 in 10.0 mi South 10.4 mph - N/A   Clear
11:53 AM 66.9 °F 46.9 °F 49% 29.80 in 10.0 mi SE 10.4 mph 17.3 mph N/A   Partly Cloudy
12:53 PM 64.9 °F 48.0 °F 54% 29.81 in 10.0 mi South 13.8 mph 25.3 mph N/A   Mostly Cloudy
1:53 PM 66.0 °F 48.0 °F 52% 29.81 in 10.0 mi South 16.1 mph 25.3 mph N/A   Overcast
2:53 PM 66.0 °F 48.0 °F 52% 29.83 in 10.0 mi South 15.0 mph 26.5 mph N/A   Overcast
3:53 PM 66.0 °F 48.0 °F 52% 29.83 in 10.0 mi South 18.4 mph 39.1 mph N/A   Overcast
4:53 PM 66.9 °F 46.9 °F 49% 29.84 in 10.0 mi South 16.1 mph 26.5 mph N/A   Overcast
5:53 PM 66.9 °F 46.9 °F 49% 29.85 in 10.0 mi South 13.8 mph 29.9 mph N/A   Overcast
6:53 PM 66.0 °F 48.0 °F 52% 29.86 in 10.0 mi South 17.3 mph 27.6 mph N/A   Overcast
7:53 PM 64.9 °F 48.0 °F 54% 29.86 in 10.0 mi South 12.7 mph 26.5 mph N/A   Mostly Cloudy
8:53 PM 64.9 °F 48.0 °F 54% 29.87 in 10.0 mi South 16.1 mph 28.8 mph N/A   Overcast
9:53 PM 64.0 °F 46.9 °F 54% 29.88 in 10.0 mi SSE 9.2 mph - N/A   Overcast
10:53 PM 64.0 °F 46.9 °F 54% 29.89 in 10.0 mi South 10.4 mph 16.1 mph N/A   Overcast
11:53 PM 62.1 °F 48.0 °F 60% 29.90 in 10.0 mi South 10.4 mph 19.6 mph N/A   Overcast